Location: Be?i?
(36.9044°N, 30.1006°E)
Time: 11:20:54
(UTC+00:00)

CZ-4C R/B - Pass Details

Date: 05 August 2024
Orbit: 522 x 1469 km, 63.4° (Epoch: 13 September)

Event Time Altitude Azimuth Distance (km) Brightness Sun altitude
Rises 18:31:26 0° 318° (NW) 4,031 7.4 -16.4°
Reaches altitude 10° 18:34:12 10° 311° (NW) 3,190 6.5 -16.9°
Maximum altitude 18:41:20 38° 247° (WSW) 1,988 4.3 -18.0°
Drops below altitude 10° 18:49:19 10° 184° (S) 3,575 5.1 -19.2°
Enters shadow 18:50:26 - 181° (S) 3,901 5.3 -19.4°
